Regional Weather Roundup
Issued by NWS Newport/Morehead, NC

Current Version | Previous Version | Graphics & Text | Print | Product List | Glossary On
Versions: 1 2 3 4 5 6 7 8 9 10 11 12 13 14 15 16 17 18 19 20 21 22 23 24 25 26 27 28 29 30 31 32 33 34 35 36 37 38 39 40 41 42 43 44 45 46 47 48 49 50
000 ASUS42 KMHX 241513 RWRMHX WEATHER ROUNDUP FOR EASTERN NORTH CAROLINA NATIONAL WEATHER SERVICE NEWPORT/MOREHEAD CITY NC 1100 AM EDT MON APR 24 2017 NOTE: "FAIR" INDICATES FEW OR NO CLOUDS BELOW 12,000 FEET WITH NO SIGNIFICANT WEATHER AND/OR OBSTRUCTIONS TO VISIBILITY NCZ015>017-031-032-045>047-102-103-241600- NORTH COAST CITY SKY/WX TMP DP RH WIND PRES REMARKS EDENTON CLOUDY 69 65 89 NE9 29.89S ELIZABETH CITY CLOUDY 66 65 96 NE10 29.91S KITTY HAWK CLOUDY 63 63 100 CALM 29.89F MANTEO CLOUDY 66 63 88 E9 29.90S $$ NCZ045>047-081-094-103-104-241600- CENTRAL COAST CITY SKY/WX TMP DP RH WIND PRES REMARKS FRISCO CLOUDY 74 65 73 SE10G21 29.88R HAZE $$ NCZ095-097-098-100-101-241600- SOUTHERN COAST CITY SKY/WX TMP DP RH WIND PRES REMARKS BEAUFORT HVY RAIN 67 67 100 SE8 29.86R VSB 1 CEDAR ISLAND NOT AVBL JACKSONVILLE LGT RAIN 68 68 100 S7 29.81S PINEY ISLAND CLOUDY N/A N/A N/A S13 29.87R FOG WILMINGTON RAIN 66 65 96 SE10G17 29.80S FOG $$ NCZ011>013-027>030-043-044-078>080-089-090>093-098-241600- COASTAL PLAIN CITY SKY/WX TMP DP RH WIND PRES REMARKS AHOSKIE DRIZZLE 59 58 97 N8 29.91S CLINTON HVY RAIN 61 61 100 NE5 29.83F ELIZABETHTOWN DRIZZLE 61 61 100 CALM 29.80F GOLDSBORO LGT RAIN 62 62 100 NE5 29.83S GREENVILLE CLOUDY 64 64 100 NE8 29.88S HAVELOCK RAIN 69 66 90 SE17G24 29.86S KENANSVILLE LGT RAIN 63 63 100 NE3 29.83S KINSTON RAIN 64 64 100 CALM 29.85S NEW BERN RAIN 67 67 100 SE7 29.85S RICHLANDS LGT RAIN 66 66 100 NE6 29.83S FOG ROCKY MOUNT CLOUDY 59 59 100 NE10 29.88R WASHINGTON RAIN 66 65 97 E8 29.86S WHITEVILLE CLOUDY 63 62 96 N5 29.77F FOG $$ AMZ130-135-150-152-154-156-158-170-250-252-270-ANZ085-086-088-633-658-670-241600- MARINE OBSERVATIONS STATION/POSITION TIME TEMP WIND PRES WAVE SWELL AIR SEA DIR/SP/G HT/PER HT/PER (UTC) (F) (DEG/KT/KT) (MB) (FT/S) (FT/S) CHESAPEAKE LIGHT NOT AVBL 64 E VA BEACH 1450 59 53 90/ 10/ 12 1014.2 5/ 8 5/ 8 DUCK 1448 60 61 50/ 9/ 11 1012.3 2 E DUCK 1500 61 N/A 5/12 2/12 OREGON INLET 1448 70/ 6/ 11 N/A 13E OREGON INLT 1448 57 N/A 5/11 5/11 HATTERAS CG 1448 72 67 140/ 11/ 15 1011.3 DIAMOND BUOY 1450 76 79 130/ 23/ 27 1011.1 7/11 5/11 CAPE LOOKOUT 1500 67 140/ 12/ 13 1010.6 BEAUFORT LAB 1448 67 65 130/ 7/ 10 1010.0 30 SE NEW RVR IN 1408 66 160/ 16/ 23 1009.6 30 SE NEW RVR IN 1443 71 N/A 8/ 7 2/11 27 SE WRIGHTSVLE 1408 71 72 130/ 16/ 21 1008.3 5 SE WRIGHTSVLE 1408 67 69 170/ 12/ 17 1008.5 225 S CAPE HAT 1450 71 75 120/ 29/ 37 1009.2 7/ 7 2/11 41 SE CHARLESTON 1450 72 74 190/ 16/ 23 1005.5 7/ 8 2/11 $$

USA.gov is the U.S. government's official web portal to all federal, state and local government web resources and services.